Terminal Aerodrome Forecast
Issued by NWS

Home | Current Version | Previous Version | Text Only | Print | Product List | Glossary On
Versions: 1 2 3 4 5 6 7 8 9 10 11 12 13 14 15 16 17 18 19 20 21 22 23 24 25 26 27 28 29 30 31
000
FTUS42 KCAE 291739
TAFOGB
TAF
KOGB 291739Z 2918/3018 12006KT P6SM SCT040
     FM291900 12006KT P6SM VCSH BKN050 BKN150
     FM300000 VRB03KT P6SM SCT050 BKN150
     FM300800 00000KT 6SM BR SCT250
     FM301400 VRB03KT P6SM SCT250=

USA.gov is the U.S. government's official web portal to all federal, state and local government web resources and services.